Location: San Martino di Castrozza
(46.2667°N, 11.8000°E)
Time: 15:40:30
(UTC+00:00)

Cosmos 2150 Rocket - Pass Details

Date: 23 April 2021
Orbit: 749 x 807 km, 74.0° (Epoch: 12 May)

Event Time Altitude Azimuth Distance (km) Brightness Sun altitude
Exits shadow 02:56:23 14° 210° (SSW) 2,121 5.7 -12.5°
Maximum altitude 03:01:07 71° 293° (WNW) 848 4.1 -11.8°
Drops below altitude 10° 03:06:32 10° 18° (NNE) 2,374 7.3 -11.1°
Sets 03:08:57 0° 21° (NNE) 3,299 8.2 -10.7°
